FW0151 Weather Reports


Display with metric or nautical units.
time (UTC)temp
F
wind
direction
speed
MPH
gust
MPH
rain 1hr
in
rain 24hr
in
rain mn
in
humidity
%
barometer
mb
20260507151520 56 23 1.0 3.0 0.00 0.00 0.00 74 1015.8
20260507150518 56 23 1.0 2.0 0.00 0.00 0.00 74 1015.8
20260507145558 56 23 1.0 2.0 0.00 0.00 0.00 74 1015.8
20260507144518 56 0 1.0 3.0 0.00 0.00 0.00 74 1015.8
20260507143518 56 23 2.0 4.0 0.00 0.00 0.00 75 1015.9
20260507142538 56 23 1.0 3.0 0.00 0.00 0.00 75 1015.9
20260507141519 56 23 1.0 5.0 0.00 0.00 0.00 74 1015.9
20260507140519 56 23 3.0 5.0 0.00 0.00 0.00 74 1015.9
20260507135520 56 0 3.0 6.0 0.00 0.00 0.00 75 1015.9
20260507134518 56 23 4.0 8.0 0.00 0.00 0.00 74 1015.9
20260507133538 57 23 5.0 9.0 0.00 0.00 0.00 75 1015.8
20260507132518 57 338 5.0 8.0 0.00 0.00 0.00 74 1015.8
20260507131518 57 338 5.0 9.0 0.00 0.00 0.00 74 1015.8
20260507130540 58 338 4.0 7.0 0.00 0.00 0.00 72 1015.8
20260507125518 58 338 2.0 7.0 0.00 0.00 0.00 72 1015.9
20260507124538 59 23 1.0 3.0 0.00 0.00 0.00 67 1015.8
20260507123518 58 0.0 1.0 0.00 0.00 0.00 66 1015.9
20260507122520 58 0.0 2.0 0.00 0.00 0.00 67 1015.9
20260507121520 58 0.0 2.0 0.00 0.00 0.00 67 1015.9
20260507120518 59 0.0 2.0 0.00 0.00 0.00 66 1015.8
20260507115538 59 0.0 1.0 0.00 0.00 0.00 66 1015.9
20260507114518 58 270 1.0 4.0 0.00 0.00 0.00 68 1015.9
20260507113518 59 0.0 3.0 0.00 0.00 0.00 68 1015.8
20260507112519 59 315 1.0 4.0 0.00 0.00 0.00 65 1015.9
20260507111518 59 225 1.0 5.0 0.00 0.00 0.00 69 1015.9
20260507110530 59 248 1.0 8.0 0.00 0.00 0.00 69 1016.0
20260507105519 58 225 4.0 7.0 0.00 0.00 0.00 68 1016.0
20260507104518 58 225 3.0 6.0 0.00 0.00 0.00 68 1016.1
20260507103518 58 225 4.0 7.0 0.00 0.00 0.00 69 1016.2
20260507102518 58 203 2.0 4.0 0.00 0.00 0.00 73 1016.1
20260507101518 57 225 1.0 6.0 0.00 0.00 0.00 73 1016.1
20260507100518 57 248 1.0 5.0 0.00 0.00 0.00 76 1016.0
20260507095519 56 248 2.0 4.0 0.00 0.00 0.00 77 1016.0
20260507094518 56 248 1.0 3.0 0.00 0.00 0.00 77 1016.0
20260507093519 56 225 1.0 3.0 0.00 0.00 0.00 78 1016.0
20260507092518 56 203 1.0 4.0 0.00 0.00 0.00 80 1015.9
20260507091518 55 248 1.0 4.0 0.00 0.00 0.00 79 1015.8
20260507090518 55 248 1.0 3.0 0.00 0.00 0.00 80 1015.8
20260507085519 55 0.0 3.0 0.00 0.00 0.00 81 1015.7
20260507084518 55 248 1.0 3.0 0.00 0.00 0.00 81 1015.7
20260507083519 55 248 1.0 2.0 0.00 0.00 0.00 81 1015.7
20260507082520 55 0.0 2.0 0.00 0.00 0.00 81 1015.5
20260507081516 54 0.0 1.0 0.00 0.00 0.00 81 1015.5
20260507080519 54 0.0 3.0 0.00 0.00 0.00 82 1015.5
20260507075518 54 0.0 1.0 0.00 0.00 0.00 81 1015.5
20260507074518 54 0.0 0.0 0.00 0.00 0.00 84 1015.4
20260507073518 53 0.0 0.0 0.00 0.00 0.00 84 1015.4
20260507072523 53 0.0 1.0 0.00 0.00 0.00 84 1015.3
20260507071540 53 0.0 1.0 0.00 0.00 0.00 85 1015.2
20260507070520 52 0.0 0.0 0.00 0.00 0.00 85 1015.2
20260507065520 52 0.0 1.0 0.00 0.00 0.00 86 1015.1
20260507064519 51 0.0 1.0 0.00 0.00 0.00 86 1015.1
20260507063519 51 0.0 1.0 0.00 0.00 0.00 87 1015.1
20260507062518 51 0.0 1.0 0.00 0.00 0.00 89 1015.0
20260507061518 51 0.0 0.0 0.00 0.00 0.00 90 1014.9
20260507060519 50 0.0 0.0 0.00 0.00 0.00 90 1014.9
20260507055520 50 0.0 0.0 0.00 0.00 0.00 90 1014.8
20260507054520 50 0.0 0.0 0.00 0.00 0.00 91 1014.7
20260507053518 50 0.0 0.0 0.00 0.00 0.00 91 1014.6
20260507052518 49 0.0 0.0 0.00 0.00 0.00 91 1014.5
20260507051518 49 0.0 0.0 0.00 0.00 0.00 90 1014.5
20260507050518 49 0.0 0.0 0.00 0.00 0.00 90 1014.4
20260507045521 49 0.0 0.0 0.00 0.00 0.00 90 1014.3
20260507044520 49 0.0 0.0 0.00 0.00 0.00 90 1014.2
20260507043519 49 0.0 0.0 0.00 0.00 0.00 90 1014.2
20260507042547 49 0.0 0.0 0.00 0.00 0.00 90 1014.2
20260507041518 49 0.0 0.0 0.00 0.00 0.00 90 1014.1
20260507040518 49 0.0 0.0 0.00 0.00 0.00 90 1014.1
20260507035518 49 0.0 0.0 0.00 0.00 0.00 90 1014.0
20260507034518 49 0.0 0.0 0.00 0.00 0.00 90 1013.9
20260507033518 49 0.0 0.0 0.00 0.00 0.00 90 1013.9
20260507032524 49 0.0 0.0 0.00 0.00 0.00 90 1013.9
20260507031519 49 0.0 0.0 0.00 0.00 0.00 90 1013.8
20260507030519 49 0.0 0.0 0.00 0.00 0.00 90 1013.8
20260507025518 49 0.0 0.0 0.00 0.00 0.00 90 1013.7
20260507024518 49 0.0 0.0 0.00 0.00 0.00 89 1013.8
20260507023518 50 0.0 0.0 0.00 0.00 0.00 89 1013.8
20260507022518 50 0.0 0.0 0.00 0.00 0.00 89 1013.7
20260507021521 50 0.0 0.0 0.00 0.00 0.00 89 1013.7
20260507020540 50 0.0 0.0 0.00 0.00 0.00 89 1013.7
20260507015518 50 0.0 0.0 0.00 0.00 0.00 89 1013.6
20260507014518 50 0.0 0.0 0.00 0.00 0.00 88 1013.5
20260507013518 50 0.0 0.0 0.00 0.00 0.00 88 1013.5
20260507012538 50 0.0 1.0 0.00 0.00 0.00 88 1013.5
20260507011518 50 0.0 2.0 0.00 0.00 0.00 88 1013.6
20260507010518 50 0.0 2.0 0.00 0.00 0.00 88 1013.5
20260507005518 50 0.0 2.0 0.00 0.00 0.00 88 1013.4
20260507004518 50 338 1.0 2.0 0.00 0.00 0.00 88 1013.5
20260507003518 50 0.0 1.0 0.00 0.00 0.00 88 1013.5
20260507002518 50 0.0 0.0 0.00 0.00 0.00 88 1013.4
20260507001520 50 0.0 1.0 0.00 0.00 0.00 89 1013.5
20260507000520 50 0.0 1.0 0.00 0.00 0.00 89 1013.5
20260506235620 49 0.0 1.0 0.00 0.00 0.00 89 1013.5
20260506234518 49 0.0 1.0 0.00 0.00 0.00 89 1013.5
20260506233518 49 0.0 0.0 0.00 0.00 0.00 89 1013.4
20260506232538 49 0.0 1.0 0.00 0.00 0.00 89 1013.4
20260506231518 48 0.0 0.0 0.00 0.00 0.00 89 1013.4
20260506230520 48 0.0 0.0 0.00 0.00 0.00 89 1013.3
20260506225520 48 0.0 0.0 0.00 0.00 0.00 88 1013.3
20260506224520 48 0.0 0.0 0.00 0.00 0.00 88 1013.3
20260506223516 48 0.0 0.0 0.00 0.00 0.00 88 1013.2
20260506222536 48 0.0 0.0 0.00 0.00 0.00 87 1013.2
20260506221517 48 0.0 0.0 0.00 0.00 0.00 87 1013.1
20260506220518 48 0.0 1.0 0.00 0.00 0.00 87 1013.1
20260506215516 48 0.0 1.0 0.00 0.00 0.00 87 1013.1
20260506214536 48 338 1.0 3.0 0.00 0.00 0.00 87 1013.0
20260506213518 48 0.0 2.0 0.00 0.00 0.00 87 1013.0
20260506212538 48 338 1.0 2.0 0.00 0.00 0.00 87 1012.9
20260506211516 47 0.0 0.0 0.00 0.00 0.00 87 1012.9
20260506210516 47 0.0 1.0 0.00 0.00 0.00 87 1012.9
20260506205516 47 0.0 1.0 0.00 0.00 0.00 86 1012.9
20260506204536 47 0.0 1.0 0.00 0.00 0.00 85 1012.9
20260506203516 48 0.0 2.0 0.00 0.00 0.00 85 1012.8
20260506202516 48 0.0 2.0 0.00 0.00 0.00 85 1012.8
20260506201516 48 0.0 2.0 0.00 0.00 0.00 84 1012.8
20260506200518 49 338 1.0 2.0 0.00 0.00 0.00 83 1012.7
20260506195517 49 338 1.0 3.0 0.00 0.00 0.00 83 1012.5
20260506194516 50 338 2.0 4.0 0.00 0.00 0.00 82 1012.5
20260506193519 50 338 3.0 6.0 0.00 0.00 0.00 82 1012.4
20260506192518 50 338 2.0 5.0 0.00 0.00 0.00 81 1012.3
20260506191518 51 338 3.0 6.0 0.00 0.00 0.00 80 1012.2
20260506190521 51 338 4.0 7.0 0.00 0.00 0.00 80 1012.1
20260506185538 52 338 3.0 5.0 0.00 0.00 0.00 79 1012.0
20260506184519 52 338 5.0 8.0 0.00 0.00 0.00 78 1012.0
20260506183516 53 338 5.0 11.0 0.00 0.00 0.00 78 1012.0
20260506182516 53 0 5.0 8.0 0.00 0.00 0.00 78 1011.9
20260506181516 53 338 6.0 12.0 0.00 0.00 0.00 76 1011.7
20260506180516 53 338 6.0 13.0 0.00 0.00 0.00 78 1011.6
20260506175516 53 338 7.0 12.0 0.00 0.00 0.00 77 1011.5
20260506174516 54 338 7.0 13.0 0.00 0.00 0.00 76 1011.3
20260506173516 54 0 6.0 9.0 0.00 0.00 0.00 77 1011.3
20260506172516 54 338 5.0 10.0 0.00 0.00 0.00 76 1011.1
20260506171636 54 0 6.0 11.0 0.00 0.00 0.00 77 1011.0
20260506170538 54 0 6.0 12.0 0.00 0.00 0.00 77 1011.0
20260506165519 54 0 7.0 11.0 0.00 0.00 0.00 76 1011.0
20260506164518 54 0 8.0 13.0 0.00 0.00 0.00 76 1010.9
20260506163519 55 0 8.0 12.0 0.00 0.00 0.00 76 1010.9
20260506162518 55 0 7.0 12.0 0.00 0.00 0.00 76 1010.9
20260506161538 55 0 8.0 13.0 0.00 0.00 0.00 76 1010.9
20260506160558 55 23 7.0 11.0 0.00 0.00 0.00 76 1010.8
20260506155518 56 23 7.0 11.0 0.00 0.00 0.00 75 1010.8
20260506154518 55 338 7.0 13.0 0.00 0.00 0.00 77 1010.7
20260506153518 55 0 7.0 12.0 0.00 0.00 0.00 76 1010.8
20260506152517 55 338 7.0 15.0 0.00 0.00 0.00 76 1010.8